Shahre-Kord, Iran

8:26 PM +0330 on December 12, 2017 (GMT +0330)
Shahre Kord

Weather History for OIFS - December, 2013

Change the Weather History Date:

Monday, December 2, 2013

  Actual Average Record
Temperature  
Mean Temperature 42 °F -  
Max Temperature 63 °F - - ()
Min Temperature 20 °F - - ()
Degree Days  
Heating Degree Days 24    
Moisture  
Dew Point 21 °F    
Average Humidity 48    
Maximum Humidity 80    
Minimum Humidity 12    
Precipitation  
Precipitation 0.00 in - - ()
Sea Level Pressure  
Sea Level Pressure 30.34 in    
Wind  
Wind Speed 1 mph ()    
Max Wind Speed 7 mph    
Max Gust Speed -    
Visibility 6.0 miles    
Events      
T = Trace of Precipitation, MM = Missing Value Source: Averaged Metar Reports

Daily Weather History Graph

Daily Weather History Graph

Search for Another Location

Airport or City:

Trip Planner

Search our weather history database for the weather conditions in past years. The results will help you decide how hot, cold, wet, or windy it might be!

Date:

Astronomy

Dec. 02, 2013 Rise Set
Actual Time 6:50 AM +0330 5:01 PM +0330
Civil Twilight 6:23 AM +0330 5:27 PM +0330
Nautical Twilight 5:53 AM +0330 5:58 PM +0330
Astronomical Twilight 5:23 AM +0330 6:27 PM +0330
Moon 5:52 AM +0330 (12/2) 4:40 PM +0330 (12/2)
Length of Visible Light 11h 04m
Length of Day
10h 10m
Waning Crescent, 1% of the Moon is Illuminated
Dec 2
Waning Crescent
Dec 3
New
Dec 9
First Quarter
Dec 17
Full
Dec 25
Last Quarter

Hourly Weather History & Observations

Time (+0330) Temp. Windchill Dew Point Humidity Pressure Visibility Wind Dir Wind Speed Gust Speed Precip Events Conditions
12:30 AM 32 °F - 18 °F 44% 30.30 in 6 mi Calm Calm - -  
12:30 AM 32.0 °F - 17.6 °F 55% 30.42 in - Calm Calm - N/A   Clear
1:30 AM 26.6 °F - 19.4 °F 74% 30.42 in - Calm Calm - N/A   Clear
2:30 AM 24.8 °F - 19.4 °F 80% 30.42 in - Calm Calm - N/A   Clear
3:30 AM 27 °F - 18 °F 57% 30.30 in 6 mi Calm Calm - -  
3:30 AM 26.6 °F - 17.6 °F 69% 30.39 in - Calm Calm - N/A   Clear
4:30 AM 24.8 °F - 17.6 °F 74% 30.39 in - Calm Calm - N/A   Clear
5:30 AM 24.8 °F - 17.6 °F 74% 30.39 in - Calm Calm - N/A   Clear
6:30 AM 21 °F - 14 °F 65% 30.52 in 6 mi Calm Calm - -  
6:30 AM 21.2 °F - 14.0 °F 74% 30.42 in - Calm Calm - N/A   Clear
7:30 AM 24.8 °F - 17.6 °F 74% 30.42 in - Calm Calm - N/A   Clear
8:30 AM 32.0 °F - 19.4 °F 60% 30.45 in - Calm Calm - N/A   Clear
9:30 AM 39 °F - 20 °F 34% 30.43 in 6 mi Calm Calm - -   Clear
9:30 AM 39.2 °F - 19.4 °F 45% 30.42 in - Calm Calm - N/A   Clear
10:30 AM 44.6 °F - 23.0 °F 43% 30.42 in - Calm Calm - N/A   Clear
11:30 AM 50.0 °F - 23.0 °F 35% 30.39 in - South 6.9 mph - N/A   Clear
12:30 PM 53 °F - 26 °F 23% 30.27 in 6 mi South 6.7 mph - -   Clear
12:30 PM 53.6 °F - 26.6 °F 35% 30.36 in - South 6.9 mph - N/A   Clear
1:30 PM 57.2 °F - 23.0 °F 27% 30.33 in - Calm Calm - N/A   Clear
2:30 PM 62.6 °F - 19.4 °F 19% 30.30 in - Calm Calm - N/A   Clear
3:30 PM 61 °F - 22 °F 12% 30.17 in 6 mi Calm Calm - -   Clear
3:30 PM 60.8 °F - 21.2 °F 22% 30.27 in - Calm Calm - N/A   Clear
4:30 PM 59.0 °F - 23.0 °F 25% 30.27 in - Calm Calm - N/A   Clear
5:30 PM 50.0 °F - 26.6 °F 40% 30.27 in - West 6.9 mph - N/A   Clear
6:30 PM 46 °F - 24 °F 29% 30.32 in 6 mi Calm Calm - -   Clear
6:30 PM 46.4 °F - 23.0 °F 40% 30.27 in - Calm Calm - N/A   Clear
7:30 PM 44.6 °F - 23.0 °F 43% 30.27 in - Calm Calm - N/A   Clear
8:30 PM 37.4 °F 32.1 °F 21.2 °F 52% 30.30 in - North 6.9 mph - N/A   Clear
9:30 PM 38 °F - 21 °F 38% 30.24 in 6 mi Calm Calm - -   Clear
9:30 PM 37.4 °F - 21.2 °F 52% 30.27 in - Calm Calm - N/A   Clear
10:30 PM 37.4 °F - 21.2 °F 52% 30.27 in - Calm Calm - N/A   Clear
11:30 PM 37.4 °F - 23.0 °F 56% 30.27 in - Calm Calm - N/A   Clear